Погода в Хатажукае

Россия / Республика Адыгея     45°04′15″N   40°11′11″E
темп.,
°C
ветер,
м/с
пор.,
м/с
влажн.,
%
обл.,
%
осадки,
мм/ч
давл.,
гПа
погр.,
м
10 мая, пн
пн1000:00+5юз5128964 0.0 1023231
03:00+5зюз5108970 0.1 1023197
06:00+5зюз59915 0.3 1023241
09:00+11з696610 0.4 10231333
12:00+12з8106079 0.8 10221904
15:00+11зсз71169100 1.8 10211632
18:00+10з61168100 0.6 1020634
21:00+7юз5117999 0.6 1020275
11 мая, вт
вт1100:00+8юз81561100 0.0 1018616
03:00+9юз91562100 0.0 10171174
06:00+9юз101669100 0.1 10161275
09:00+10юз91674100 0.3 10161554
12:00+11юз81575100 0.9 10161782
15:00+13ююз71364100 1.4 10161866
18:00+11вюв4678100 0.6 1017262
21:00+9в3385100 0.9 101851
12 мая, ср
ср1200:00+8в2494100 0.3 1017114
03:00+7в359698 0.3 1017108
06:00+7вюв369699 0.0 1017196
09:00+13вюв33785 0.0 1016589
12:00+17в33616 0.0 10161081
15:00+19в455788 0.0 10151270
18:00+18в47724 0.0 1014312
21:00+13в410865 0.0 1014158
13 мая, чт
чт1300:00+11в4109155 0.0 1013172
03:00+9вюв489413 0.0 1013133
06:00+10вюв36882 0.0 1013121
09:00+18в456699 0.0 1012325
12:00+24в45565 0.0 1012653
15:00+25в576177 0.0 1011854
18:00+22в61275100 0.0 1011442
21:00+18в514821 0.0 1011287
14 мая, пт
пт1400:00+15в49930 0.0 1011138
03:00+15вюв34890 0.0 101155
06:00+15вюв337139 0.0 101134
09:00+23вюв23576 0.0 1011195
12:00+28в334930 0.0 1011505
15:00+29всв455558 0.0 1010585
18:00+26в387512 0.0 1010200
21:00+20вюв498961 0.0 1010128